User: anonymous   Login
Location: Unspecified
(0.0000°N, 0.0000°E)
Time: 06:45:12
(UTC+00:00)
Language:

HUMSAT D - Orbit

View from above orbital plane
View from above orbital plane
View from above satellite
View from above satellite

Ground track
Ground track

The orbit data is extracted from the following two-line orbital elements,

1 39433U 13066T   17087.74227067 +.00001056 +00000-0 +11052-3 0  9990
2 39433 097.6607 153.2123 0032683 123.3530 237.0824 14.91314676182026
Epoch (UTC): 28 March 2017 17:48:52
Eccentricity: 0.0032683
inclination: 97.6607°
perigee height: 571 km
apogee height: 616 km
right ascension of ascending node: 153.2123°
argument of perigee: 123.3530°
revolutions per day: 14.91314676
mean anomaly at epoch: 237.0824°
orbit number at epoch: 18202

The dashed part of the orbit path shows where the satellite is in the earth's shadow,  

DLR